Buffalo, SD

10:25 AM MST on February 12, 2016 (GMT -0700)
Buffalo

Weather History for K2WX - November, 2013

Change the Weather History Date:

Tuesday, November 5, 2013

  Actual Average Record
Temperature  
Mean Temperature 31 °F 37 °F  
Max Temperature 39 °F 48 °F 73 °F (2001)
Min Temperature 22 °F 26 °F 0 °F (2003)
Degree Days  
Heating Degree Days 34 28  
Month to date heating degree days 140 134  
Since 1 July heating degree days 970 1035  
Cooling Degree Days 0 0  
Month to date cooling degree days 0 0  
Year to date cooling degree days 587 513  
Moisture  
Dew Point 22 °F    
Average Humidity 77    
Maximum Humidity 100    
Minimum Humidity 54    
Precipitation  
Precipitation 0.00 in 0.02 in 0.15 in (2008)
Month to date precipitation 0.00 0.12  
Year to date precipitation 12.15 14.04  
Sea Level Pressure  
Sea Level Pressure 30.14 in    
Wind  
Wind Speed 7 mph (South)    
Max Wind Speed 16 mph    
Max Gust Speed 20 mph    
T = Trace of Precipitation, MM = Missing Value Source: NWS Daily Summary

Daily Weather History Graph

Daily Weather History Graph

Search for Another Location

Airport or City:

Trip Planner

Search our weather history database for the weather conditions in past years. The results will help you decide how hot, cold, wet, or windy it might be!

Date:

Astronomy

Nov. 05, 2013 Rise Set
Actual Time 6:39 AM MST 4:34 PM MST
Civil Twilight 6:08 AM MST 5:06 PM MST
Nautical Twilight 5:33 AM MST 5:41 PM MST
Astronomical Twilight 4:58 AM MST 6:16 PM MST
Moon 9:01 AM MST (11/5) 6:34 PM MST (11/5)
Length of Visible Light 10h 57m
Length of Day
9h 55m
Waxing Crescent, 7% of the Moon is Illuminated
Nov 5
Waxing Crescent
Nov 9
First Quarter
Nov 17
Full
Nov 25
Last Quarter
Dec 2
New

Hourly Weather History & Observations

Time (MST) Temp. Windchill Dew Point Humidity Pressure Visibility Wind Dir Wind Speed Gust Speed Precip Events Conditions
12:56 AM 25.0 °F - 18.0 °F 75% 30.13 in - Calm Calm - N/A   Unknown
1:56 AM 25.0 °F - 18.0 °F 75% 30.14 in - Calm Calm - N/A   Unknown
2:56 AM 26.1 °F 21.9 °F 17.1 °F 69% 30.13 in - NNE 3.5 mph - N/A   Unknown
3:56 AM 24.1 °F 19.7 °F 18.0 °F 77% 30.13 in - NE 3.5 mph - N/A   Unknown
4:56 AM 26.1 °F - 16.0 °F 66% 30.15 in - Calm Calm - N/A   Unknown
5:56 AM 24.1 °F - 18.0 °F 77% 30.17 in - Calm Calm - N/A   Unknown
6:56 AM 24.1 °F - 17.1 °F 75% 30.17 in - Calm Calm - N/A   Unknown
7:56 AM 23.0 °F - 19.0 °F 85% 30.21 in - Calm Calm - N/A   Unknown
8:56 AM 28.0 °F 24.2 °F 19.0 °F 69% 30.21 in - SE 3.5 mph - N/A   Unknown
9:56 AM 30.9 °F 26.2 °F 24.1 °F 76% 30.19 in - SE 4.6 mph - N/A   Unknown
10:56 AM 34.0 °F 27.2 °F 24.1 °F 67% 30.17 in - South 8.1 mph - N/A   Unknown
11:56 AM 36.0 °F 29.0 °F 24.1 °F 62% 30.15 in - SW 9.2 mph - N/A   Unknown
12:56 PM 39.0 °F 31.0 °F 24.1 °F 55% 30.12 in - SSW 13.8 mph 18.4 mph N/A   Unknown
1:56 PM 36.0 °F 28.0 °F 24.1 °F 62% 30.12 in - SSW 11.5 mph - N/A   Unknown
2:56 PM 36.0 °F 30.3 °F 24.1 °F 62% 30.12 in - SSW 6.9 mph - N/A   Unknown
3:56 PM 35.1 °F 27.4 °F 24.1 °F 64% 30.12 in - South 10.4 mph - N/A   Unknown
4:56 PM 28.9 °F 19.8 °F 23.0 °F 78% 30.13 in - South 10.4 mph - N/A   Unknown
5:56 PM 27.0 °F 16.1 °F 23.0 °F 85% 30.13 in - South 12.7 mph - N/A   Unknown
6:56 PM 26.1 °F 15.0 °F 23.0 °F 88% 30.12 in - South 12.7 mph - N/A   Unknown
7:56 PM 25.0 °F 14.2 °F 23.0 °F 92% 30.12 in - South 11.5 mph - N/A   Unknown
8:56 PM 26.1 °F 16.2 °F 25.0 °F 96% 30.11 in - SSW 10.4 mph - N/A   Unknown
9:56 PM 25.0 °F 15.5 °F 25.0 °F 100% 30.11 in - South 9.2 mph - N/A   Unknown
10:56 PM 25.0 °F 14.8 °F 25.0 °F 100% 30.09 in - South 10.4 mph - N/A   Unknown
11:56 PM 24.1 °F 15.2 °F 21.9 °F 91% 30.08 in - SSW 8.1 mph - N/A   Unknown